Tracking 29932 objects as of 3-Dec-2024
HD Live streaming from Space Station
objects crossing your sky now

STARLINK-30290

Track STARLINK-30290 now!
10-day predictions
STARLINK-30290 is classified as:


NORAD ID: 57858
Int'l Code: 2023-141U
Perigee: 482.1 km
Apogee: 482.7 km
Inclination: 53.2 °
Period: 94.1 minutes
Semi major axis: 6853 km
RCS: Unknown
Launch date: September 12, 2023
Source: United States (US)
Launch site: AIR FORCE WESTERN TEST RANGE (AFWTR)
Your satellite tracking list
Your tracking list is empty




NASA's NSSDC Master Catalog

Two Line Element Set (TLE):
1 57858U 23141U   24338.19457650 -.00002448  00000-0 -70610-4 0  9999
2 57858  53.1605 267.5387 0000445 117.0048 243.0998 15.30187928 69674
Source of the keplerian elements: AFSPC